OPS 7218 (TRANSIT 16) 1 02807U 67048A 26161.53499503 .00000117 00000+0 16613-3 0 9994 2 02807 89.6716 348.1208 0018842 320.6663 93.1537 13.50764940907037 OPS 4947 (TRANSIT 17) 1 02965U 67092A 26161.60264472 .00000095 00000+0 12314-3 0 9990 2 02965 89.2540 10.8054 0049625 74.1922 340.5209 13.53498423895301 OPS 7034 (TRANSIT 18) 1 03133U 68012A 26161.59328969 .00000070 00000+0 90945-4 0 9991 2 03133 90.0284 274.0862 0073848 11.2174 5.4072 13.51607679593482 NNSS 19 (TRANSIT 19) 1 04507U 70067A 26161.62936862 .00000093 00000+0 11421-3 0 9997 2 04507 90.0169 234.7155 0173737 131.2868 230.3393 13.51363419746519 NNSS 20 (TRANSIT 20) 1 06909U 73081A 26161.52849759 .00000182 00000+0 17750-3 0 9991 2 06909 89.8632 252.3529 0152344 258.8371 99.5633 13.71506930828258 TRANSAT 1 10457U 77106A 26161.53709718 .00000064 00000+0 85247-4 0 9993 2 10457 89.6490 72.1629 0026924 38.3650 141.1391 13.48970825391673 NOVA 1 1 12458U 81044A 26161.56482432 .00000077 00000+0 16152-3 0 9998 2 12458 89.8485 88.7337 0013612 336.5723 203.9271 13.23299507175640 NOVA 3 1 15362U 84110A 26161.30763339 .00000060 00000+0 12330-3 0 9998 2 15362 90.1211 82.5626 0030811 191.0773 288.2803 13.23068562 10720 OSCAR 30 1 15935U 85066A 26161.57495510 .00000064 00000+0 10274-3 0 9996 2 15935 90.1568 102.6507 0165957 296.7037 245.1260 13.36110783988549 OSCAR 24 1 15936U 85066B 26161.57831135 .00000069 00000+0 11188-3 0 9994 2 15936 90.1732 95.3627 0167178 303.3454 237.7264 13.35967367990449 POLAR BEAR 1 17070U 86088A 26161.62809387 .00000092 00000+0 84251-4 0 9998 2 17070 89.6182 176.6456 0037353 299.5167 183.8653 13.75286989984515 OSCAR 27 1 18361U 87080A 26161.29018335 .00000088 00000+0 13080-3 0 9999 2 18361 90.3723 85.8958 0105951 70.5409 290.7150 13.44940773899703 OSCAR 29 1 18362U 87080B 26161.53333253 .00000077 00000+0 11162-3 0 9993 2 18362 90.3732 86.3766 0107467 92.8734 79.8220 13.44478857899252 OSCAR 23 1 19070U 88033A 26161.62447692 .00000063 00000+0 10938-3 0 9997 2 19070 90.3282 22.0809 0190783 40.5873 13.0543 13.27816795846406 OSCAR 32 1 19071U 88033B 26161.65625466 .00000042 00000+0 67054-4 0 9997 2 19071 90.3286 22.2232 0188818 27.2971 35.0934 13.27979609846536 NOVA 2 1 19223U 88052A 26161.56529819 .00000003 00000+0 -13489-4 0 9993 2 19223 89.9871 77.9745 0028617 236.3934 303.3288 13.22956590833254 OSCAR 25 1 19419U 88074A 26161.57144847 .00000080 00000+0 11905-3 0 9993 2 19419 90.0411 20.9375 0098112 93.1253 324.3802 13.42657457850538 OSCAR 31 1 19420U 88074B 26161.60062295 .00000073 00000+0 10816-3 0 9997 2 19420 90.0428 21.3173 0096329 87.4240 326.7816 13.42611242850644